Location: Newark
(25.6108°S, 54.5803°W)
Time: 20:35:53
(UTC+00:00)

Courier 1B - Pass Details

Date: 04 November 2020
Orbit: 962 x 1209 km, 28.3° (Epoch: 24 November)

Event Time Altitude Azimuth Distance (km) Brightness Sun altitude
Rises 04:17:46 0° 257° (WSW) 4,023 - -46.7°
Reaches altitude 10° 04:20:33 10° 259° (WSW) 3,088 - -46.5°
Maximum altitude 04:28:15 71° 341° (NNW) 1,262 - -45.8°
Drops below altitude 10° 04:36:06 10° 63° (ENE) 3,144 - -45.1°
Sets 04:38:57 0° 65° (ENE) 4,099 - -44.8°
